Regional Weather Roundup
Issued by NWS Upton, NY

Current Version | Previous Version | Text Only | Print | Product List | Glossary On
Versions: 1 2 3 4 5 6 7 8 9 10 11 12 13 14 15 16 17 18 19 20 21 22 23 24 25 26 27 28 29 30 31 32 33 34 35 36 37 38 39 40 41 42 43 44 45 46 47 48 49 50
000
ASUS41 KOKX 300105
RWROKX

REGIONAL WEATHER ROUNDUP
NATIONAL WEATHER SERVICE NEW YORK NY
900 PM EDT MON SEP 29 2014

NOTE: "FAIR" INDICATES FEW OR NO CLOUDS BELOW 12,000 FEET WITH NO
SIGNIFICANT WEATHER AND/OR OBSTRUCTIONS TO VISIBILITY.

NYZ071-072-176-178-NJZ106-104-300200-
NEW YORK CITY METRO AREA


CITY           SKY/WX    TMP DP  RH WIND       PRES   REMARKS
CENTRAL PARK   CLOUDY    72  59  63 CALM      29.95S
LAGUARDIA APRT CLOUDY    74  59  59 CALM      29.92R
KENNEDY INTL   CLOUDY    70  64  81 S7        29.95R
NEWARK/LIBERTY CLOUDY    72  60  66 SW8       29.93R
BRNX BOT. GARD   N/A     68  61  77 CALM      29.93F
TETERBORO      CLOUDY    73  60  63 CALM      29.91S
$$

NYZ177-179-078>081-300200-
LONG ISLAND NEW YORK

CITY           SKY/WX    TMP DP  RH WIND       PRES   REMARKS
FARMINGDALE    CLOUDY    69  65  86 SW6       29.94S
ISLIP          CLOUDY    68  65  90 S6        29.93R
SHIRLEY        CLOUDY    67  65  93 S3        29.94R
WESTHAMPTON    CLOUDY    65  64  97 CALM      29.95R FOG
MONTAUK POINT    N/A     68  66  93 CALM      29.95F
$$

NYZ052-065-067-300200-
HUDSON VALLEY

CITY           SKY/WX    TMP DP  RH WIND       PRES   REMARKS
WHITE PLAINS   CLOUDY    66  59  78 CALM      29.93S
NEWBURGH       MOCLDY    70  63  78 CALM      29.94R
MONTGOMERY     CLOUDY    65  61  87 CALM      29.93R
POUGHKEEPSIE   CLOUDY    66  62  87 CALM      29.92R
ALBANY         MOCLDY    59  58  96 CALM      29.93S
$$

NJZ001-105-106-008-010-013-015-019>022-104-300200-
NEW JERSEY

CITY           SKY/WX    TMP DP  RH WIND       PRES   REMARKS
NEWARK/LIBERTY CLOUDY    72  60  66 SW8       29.93R
TETERBORO      CLOUDY    73  60  63 CALM      29.91S
CALDWELL       CLOUDY    69  59  70 CALM      29.93S
MORRISTOWN     NOT AVBL
SOMERVILLE     CLOUDY    67  60  78 CALM      29.92R
LINDEN         FAIR      75  63  64 CALM      29.95R
SUSSEX         CLOUDY    65  60  84 CALM      29.93R
ANDOVER          N/A     63  61  93 CALM      29.95R
TRENTON        CLOUDY    66  62  87 SW5       29.94R
MILLVILLE      LGT RAIN  66  64  93 W3        29.96R
ATLANTIC CITY  LGT RAIN  67  64  90 CALM      29.95S
WRIGHTSTOWN    CLOUDY    67  66  97 SW7       29.92F
TOMS RIVER     CLOUDY    66  63  88 CALM      29.95S
BELMAR         CLOUDY    68  61  77 SW5       29.95R
$$

PAZ047>061-062-071-300200-
EASTERN PENNSYLVANIA

CITY           SKY/WX    TMP DP  RH WIND       PRES   REMARKS
PHILADELPHIA   CLOUDY    68  64  87 S6        29.96R
ALLENTOWN      CLOUDY    69  61  75 S6        29.94R
SCRANTON       CLOUDY    64  55  72 CALM      29.93R
$$

CTZ002-004>006-009-010-012-RIZ004-006-007-MAZ004-011-015-300200-
SOUTHERN NEW ENGLAND
 IN CT

CITY           SKY/WX    TMP DP  RH WIND       PRES   REMARKS
BRADLEY INTL   CLOUDY    69  63  81 E5        29.93S
HARTFORD       CLOUDY    68  63  84 SW10      29.94R
DANBURY        CLOUDY    67  60  78 CALM      29.96R
WTRBRY/OXFORD  PTCLDY    64  57  77 CALM      29.96R
BRIDGEPORT     CLOUDY    70  66  87 CALM      29.93S
MERIDEN        CLOUDY    67  62  84 CALM      29.95R
NEW HAVEN      CLOUDY    69  64  84 CALM      29.95R
CHESTER        FAIR      64  64 100 S5        29.97R FOG
GROTON         CLOUDY    66  66 100 SE7       29.95R
WILLIMANTIC    CLOUDY    68  61  78 NE10      29.96R

 IN RI

CITY           SKY/WX    TMP DP  RH WIND       PRES   REMARKS
PROVIDENCE     CLOUDY    64  60  87 NE12      29.99R
BLOCK ISLAND   CLOUDY    66  63  88 SW7       29.96R
WESTERLY       CLOUDY    66  65  96 S5        29.97S FOG

 IN MA

CITY           SKY/WX    TMP DP  RH WIND       PRES   REMARKS
BOSTON         CLOUDY    59  57  93 NE16      30.01S FOG
WORCESTER        N/A     56  56 100 NE12G17   30.00F VSB 1/4
WESTFIELD      CLOUDY    69  60  73 E9        29.94S
PROVINCETOWN   CLOUDY    63  59  88 NE9       29.99R VSB 3/4
NANTUCKET      CLOUDY    64  63  96 CALM      29.97R FOG
$$

ANZ330-335-338-340-345-350-353-355-300200-
COASTAL MARINE OBSERVATIONS


STATION/POSITION TIME  SKY/WX   TEMP    WIND        PRES    VSBY  WAVE
                                AIR SEA DIR/SP/G                  HT/PER
                 (UTC)          (F)     (DEG/KT/KT) (MB)    (MI)  (FT/S)
NY HARB ENTRANCE 0100            70 69  220/ 10/ 10 1014.0          2/ 7
4S FIRE IS       0100               69                N/A           2/ 8
20S FIRE ISLAND  0100            68 68  200/ 10/ 12 1013.5          2/ 8
23SW MTP         0100                                 N/A           2/ 7
HUDSON CANYON    0100            70 71  220/  8/  8 1014.1          2/ 8
EXECUTION ROCKS  0100            70 69   40/  2/  4   N/A
WESTERN LI SOUND 0100            71     120/  2/  2   N/A           0
CENTRAL LI SOUND 0000            68 69  180/  8/ 12   N/A           0
EASTERN LI SOUND 0000            68 67  190/  6/ 10   N/A
ROBBINS REEF     0100            72     270/  5/  6 1012.3
$$


>>>>>>>>>>>>>>>>>>>>>>>>>>>> KEY <<<<<<<<<<<<<<<<<<<<<<<<<<<
>                                                          <
>     SKY/WX - SKY CONDITION/PRESENT WEATHER               <
>     TMP    - TEMPERATURE IN FAHRENHEIT                   <
>     DP     - DEWPOINT IN FAHRENHEIT                      <
>     RH     - RELATIVE HUMIDITY IN PERCENT                <
>     WIND   - DIRECTION AND SPEED IN MPH                  <
>     PRES   - MEAN SEA LEVEL PRESSURE IN INCHES OF HG     <
>     WCI    - WIND CHILL INDEX                            <
>     VSB    - VISIBILITY IN MILES                         <
>     HX     - HEAT INDEX                                  <
>     TC     - TEMPERATURE IN CELSIUS                      <
>     VRB    - VARIABLE WIND DIRECTION                     <
>                                                          <
>>>>>>>>>>>>>>>>>>>>>>>>>>>> KEY <<<<<<<<<<<<<<<<<<<<<<<<<<<





USA.gov is the U.S. government's official web portal to all federal, state and local government web resources and services.